When you browse on this site, cookies collect data to enhance your experience and personalize the content and advertising you see.
Visit our Privacy Policy to learn more. By continuing to use the site, you agree to this use of cookies and data.
  • Em Portugal
  • Lista de países
  • Para 7 dias
  • Temperatura da água
  • Mapas de satélite
  • Mapa do tempo
  • Widgets de tempo
  • user-avatar
    Iniciar Sessão

    Previsão horária em Pekanino

    Hoje, 26 Março, Terça-feira

    Tempo Temperatura Precipitação Vento Pressão Humidade
    00:00 +1°C° 0 mm 3 m/s 760 mmHg 94%
    01:00 +1°C° 0 mm 2 m/s 761 mmHg 94%
    02:00 +1°C° 0 mm 3 m/s 760 mmHg 94%
    03:00 0°C° 0 mm 4 m/s 760 mmHg 94%
    04:00 0°C° 0 mm 5 m/s 760 mmHg 94%
    05:00 +1°C° 0 mm 6 m/s 759 mmHg 92%
    06:00 0°C° 0 mm 7 m/s 759 mmHg 89%
    07:00 0°C° 0 mm 7 m/s 758 mmHg 85%
    08:00 +1°C° 0 mm 8 m/s 758 mmHg 81%
    09:00 +1°C° 0 mm 9 m/s 758 mmHg 77%
    10:00 +2°C° 0 mm 10 m/s 758 mmHg 72%
    11:00 +3°C° 0 mm 9 m/s 758 mmHg 68%
    12:00 +4°C° 0 mm 8 m/s 758 mmHg 63%
    13:00 +5°C° 0 mm 8 m/s 759 mmHg 58%
    14:00 +4°C° 0 mm 7 m/s 759 mmHg 54%
    15:00 +4°C° 0 mm 7 m/s 760 mmHg 51%
    16:00 +4°C° 0 mm 6 m/s 760 mmHg 47%
    17:00 +3°C° 0 mm 5 m/s 760 mmHg 54%
    18:00 +3°C° 0 mm 3 m/s 761 mmHg 60%
    19:00 +3°C° 0 mm 2 m/s 762 mmHg 67%
    20:00 +2°C° 0 mm 2 m/s 762 mmHg 68%
    21:00 +3°C° 0 mm 1 m/s 763 mmHg 69%
    22:00 +2°C° 0 mm 1 m/s 764 mmHg 70%
    23:00 +2°C° 0 mm 1 m/s 764 mmHg 70%

    Amanhã, 27 Março, Quarta-feira

    Tempo Temperatura Precipitação Vento Pressão Humidade
    00:00 +1°C° 0 mm 2 m/s 764 mmHg 70%
    01:00 0°C° 0 mm 3 m/s 764 mmHg 70%
    02:00 0°C° 0 mm 3 m/s 764 mmHg 74%
    03:00 0°C° 0 mm 3 m/s 764 mmHg 77%
    04:00 0°C° 0 mm 3 m/s 764 mmHg 81%
    05:00 -1°C° 0 mm 4 m/s 765 mmHg 78%
    06:00 0°C° 0 mm 4 m/s 765 mmHg 74%
    07:00 0°C° 0 mm 4 m/s 765 mmHg 71%
    08:00 +1°C° 0.1 mm 4 m/s 765 mmHg 75%
    09:00 +2°C° 0.1 mm 5 m/s 765 mmHg 78%
    10:00 +3°C° 0.1 mm 5 m/s 765 mmHg 82%
    11:00 +3°C° 0.3 mm 5 m/s 765 mmHg 84%
    12:00 +3°C° 0.3 mm 5 m/s 765 mmHg 86%
    13:00 +5°C° 0.3 mm 5 m/s 765 mmHg 88%
    14:00 +5°C° 0.2 mm 5 m/s 764 mmHg 89%
    15:00 +5°C° 0.2 mm 5 m/s 764 mmHg 90%
    16:00 +5°C° 0.2 mm 5 m/s 764 mmHg 91%
    17:00 +5°C° 0.1 mm 5 m/s 764 mmHg 92%
    18:00 +5°C° 0.1 mm 5 m/s 764 mmHg 94%
    19:00 +5°C° 0.1 mm 4 m/s 764 mmHg 96%
    20:00 +5°C° 0.1 mm 4 m/s 765 mmHg 96%
    21:00 +5°C° 0.1 mm 3 m/s 765 mmHg 97%
    22:00 +5°C° 0.1 mm 3 m/s 765 mmHg 97%
    23:00 +5°C° 0 mm 2 m/s 765 mmHg 97%

    Depois de amanhã, 28 Março, Quinta-feira

    Tempo Temperatura Precipitação Vento Pressão Humidade
    00:00 +5°C° 0 mm 2 m/s 766 mmHg 97%
    01:00 +6°C° 0 mm 1 m/s 766 mmHg 96%
    02:00 +6°C° 0 mm 1 m/s 766 mmHg 96%
    03:00 +5°C° 0 mm 1 m/s 767 mmHg 95%
    04:00 +5°C° 0 mm 1 m/s 767 mmHg 95%
    05:00 +5°C° 0 mm 1 m/s 767 mmHg 94%
    06:00 +6°C° 0 mm 1 m/s 768 mmHg 93%
    07:00 +5°C° 0 mm 0 m/s 768 mmHg 93%
    08:00 +8°C° 0 mm 1 m/s 768 mmHg 86%
    09:00 +9°C° 0 mm 1 m/s 769 mmHg 79%
    10:00 +11°C° 0 mm 1 m/s 769 mmHg 72%
    11:00 +12°C° 0 mm 2 m/s 770 mmHg 68%
    12:00 +12°C° 0 mm 2 m/s 770 mmHg 64%
    13:00 +13°C° 0 mm 2 m/s 770 mmHg 60%
    14:00 +12°C° 0 mm 3 m/s 770 mmHg 62%
    15:00 +11°C° 0 mm 3 m/s 770 mmHg 64%
    16:00 +11°C° 0 mm 4 m/s 770 mmHg 66%
    17:00 +9°C° 0 mm 3 m/s 770 mmHg 74%
    18:00 +8°C° 0 mm 3 m/s 770 mmHg 81%
    19:00 +5°C° 0 mm 3 m/s 770 mmHg 89%
    20:00 +5°C° 0 mm 3 m/s 770 mmHg 91%
    21:00 +5°C° 0 mm 3 m/s 770 mmHg 93%
    22:00 +5°C° 0 mm 3 m/s 770 mmHg 95%
    23:00 +5°C° 0 mm 4 m/s 771 mmHg 96%

    29 Março, Sexta-feira

    Tempo Temperatura Precipitação Vento Pressão Humidade
    00:00 +5°C° 0 mm 4 m/s 771 mmHg 96%
    01:00 +5°C° 0 mm 4 m/s 771 mmHg 96%
    02:00 +5°C° 0 mm 4 m/s 771 mmHg 96%
    03:00 +5°C° 0 mm 4 m/s 770 mmHg 96%
    04:00 +5°C° 0 mm 4 m/s 770 mmHg 96%
    05:00 +5°C° 0 mm 4 m/s 770 mmHg 95%
    06:00 +5°C° 0 mm 4 m/s 770 mmHg 94%
    07:00 +6°C° 0 mm 4 m/s 770 mmHg 93%
    08:00 +7°C° 0 mm 4 m/s 770 mmHg 87%
    09:00 +8°C° 0 mm 5 m/s 770 mmHg 81%
    10:00 +10°C° 0 mm 5 m/s 770 mmHg 75%
    11:00 +10°C° 0 mm 5 m/s 770 mmHg 72%
    12:00 +12°C° 0 mm 5 m/s 770 mmHg 68%
    13:00 +11°C° 0 mm 6 m/s 769 mmHg 64%
    14:00 +11°C° 0 mm 6 m/s 769 mmHg 64%
    15:00 +12°C° 0 mm 5 m/s 769 mmHg 64%
    16:00 +12°C° 0 mm 5 m/s 768 mmHg 65%
    17:00 +9°C° 0 mm 5 m/s 768 mmHg 70%
    18:00 +8°C° 0 mm 4 m/s 768 mmHg 76%
    19:00 +8°C° 0 mm 3 m/s 768 mmHg 81%
    20:00 +8°C° 0 mm 3 m/s 768 mmHg 83%
    21:00 +7°C° 0 mm 3 m/s 768 mmHg 85%
    22:00 +7°C° 0 mm 3 m/s 768 mmHg 86%
    23:00 +7°C° 0 mm 3 m/s 768 mmHg 88%

    30 Março, Sábado

    Tempo Temperatura Precipitação Vento Pressão Humidade
    00:00 +7°C° 0 mm 3 m/s 767 mmHg 90%
    01:00 +7°C° 0 mm 3 m/s 767 mmHg 92%
    02:00 +6°C° 0 mm 4 m/s 767 mmHg 93%
    03:00 +6°C° 0 mm 4 m/s 767 mmHg 93%
    04:00 +6°C° 0 mm 4 m/s 766 mmHg 94%
    05:00 +6°C° 0 mm 4 m/s 766 mmHg 93%
    06:00 +6°C° 0 mm 4 m/s 766 mmHg 92%
    07:00 +7°C° 0 mm 4 m/s 766 mmHg 90%
    08:00 +8°C° 0 mm 4 m/s 766 mmHg 84%
    09:00 +10°C° 0 mm 5 m/s 765 mmHg 77%
    10:00 +13°C° 0 mm 5 m/s 765 mmHg 70%
    11:00 +13°C° 0 mm 5 m/s 765 mmHg 67%
    12:00 +14°C° 0 mm 5 m/s 764 mmHg 63%
    13:00 +15°C° 0 mm 5 m/s 764 mmHg 60%
    14:00 +15°C° 0 mm 5 m/s 763 mmHg 62%
    15:00 +14°C° 0 mm 4 m/s 763 mmHg 63%
    16:00 +14°C° 0 mm 4 m/s 762 mmHg 65%
    17:00 +13°C° 0 mm 3 m/s 762 mmHg 71%
    18:00 +11°C° 0 mm 3 m/s 762 mmHg 76%
    19:00 +10°C° 0 mm 2 m/s 761 mmHg 82%
    20:00 +10°C° 0 mm 2 m/s 761 mmHg 82%
    21:00 +10°C° 0 mm 2 m/s 761 mmHg 82%
    22:00 +10°C° 0 mm 2 m/s 761 mmHg 81%
    23:00 +9°C° 0.1 mm 2 m/s 761 mmHg 83%

    31 Março, Domingo

    Tempo Temperatura Precipitação Vento Pressão Humidade
    00:00 +9°C° 0.1 mm 2 m/s 761 mmHg 84%
    01:00 +9°C° 0.1 mm 3 m/s 760 mmHg 85%
    02:00 +8°C° 0 mm 3 m/s 760 mmHg 86%
    03:00 +7°C° 0 mm 3 m/s 760 mmHg 86%
    04:00 +5°C° 0 mm 3 m/s 760 mmHg 87%
    05:00 +5°C° 0 mm 3 m/s 760 mmHg 84%
    06:00 +5°C° 0 mm 4 m/s 761 mmHg 81%
    07:00 +4°C° 0 mm 4 m/s 761 mmHg 78%
    08:00 +5°C° 0 mm 4 m/s 761 mmHg 74%
    09:00 +6°C° 0 mm 5 m/s 762 mmHg 69%
    10:00 +6°C° 0 mm 5 m/s 762 mmHg 65%
    11:00 +6°C° 0 mm 5 m/s 762 mmHg 63%
    12:00 +7°C° 0 mm 5 m/s 763 mmHg 61%
    13:00 +7°C° 0 mm 5 m/s 763 mmHg 59%
    14:00 +6°C° 0 mm 5 m/s 763 mmHg 59%
    15:00 +6°C° 0 mm 5 m/s 764 mmHg 60%
    16:00 +6°C° 0 mm 4 m/s 764 mmHg 61%
    17:00 +5°C° 0 mm 4 m/s 765 mmHg 65%
    18:00 +4°C° 0 mm 4 m/s 765 mmHg 69%
    19:00 +3°C° 0 mm 4 m/s 766 mmHg 73%
    20:00 +1°C° 0 mm 4 m/s 766 mmHg 72%
    21:00 +2°C° 0 mm 3 m/s 767 mmHg 71%
    22:00 +1°C° 0 mm 3 m/s 767 mmHg 71%
    23:00 +1°C° 0 mm 3 m/s 768 mmHg 73%
    Mostrar mais